TimePST,TemperatureF,Dew PointF,Humidity,Sea Level PressureIn,VisibilityMPH,Wind Direction,Wind SpeedMPH,Gust SpeedMPH,PrecipitationIn,Events,Conditions,WindDirDegrees,DateUTC
12:50 AM,35.6,28.4,75,30.09,10.0,SSE,8.1,-,N/A,,Overcast,150,2014-02-19 08:50:00
12:52 AM,36.0,30.0,79,30.03,10.0,South,8.1,-,N/A,,Overcast,170,2014-02-19 08:52:00
1:01 AM,36.0,30.0,79,30.09,10.0,South,11.5,-,N/A,,Overcast,170,2014-02-19 09:01:00
1:22 AM,36.0,32.0,86,30.09,10.0,SE,5.8,-,N/A,,Overcast,130,2014-02-19 09:22:00
1:52 AM,36.0,32.0,86,30.02,10.0,SE,5.8,-,N/A,,Overcast,130,2014-02-19 09:52:00
2:20 AM,37.0,32.0,82,30.09,10.0,SSE,8.1,-,N/A,,Overcast,160,2014-02-19 10:20:00
2:41 AM,37.0,32.0,82,30.08,10.0,South,9.2,-,N/A,,Overcast,170,2014-02-19 10:41:00
2:52 AM,37.0,32.0,82,30.00,10.0,SSE,9.2,-,N/A,,Overcast,150,2014-02-19 10:52:00
3:13 AM,37.0,33.1,86,30.06,10.0,SSE,10.4,-,N/A,,Overcast,160,2014-02-19 11:13:00
3:47 AM,35.6,35.6,100,30.03,1.5,SSE,11.5,-,N/A,,Overcast,160,2014-02-19 11:47:00
3:50 AM,35.6,35.6,100,30.03,0.8,South,12.7,-,N/A,,Overcast,170,2014-02-19 11:50:00
3:52 AM,36.0,35.1,97,29.97,0.5,South,11.5,-,N/A,Fog,Fog,170,2014-02-19 11:52:00
4:00 AM,36.0,35.1,97,30.03,0.2,South,9.2,-,N/A,Fog,Fog,170,2014-02-19 12:00:00
4:52 AM,36.0,36.0,100,29.99,0.5,South,13.8,-,0.03,Fog-Rain,Light Rain,170,2014-02-19 12:52:00
5:52 AM,37.0,36.0,96,30.01,0.5,South,13.8,-,0.04,Fog,Fog,180,2014-02-19 13:52:00
6:34 AM,37.0,36.0,96,30.08,0.2,SSW,9.2,-,0.06,Fog-Rain,Rain,200,2014-02-19 14:34:00
6:42 AM,37.0,36.0,96,30.09,0.5,SSW,8.1,-,0.08,Fog-Rain,Rain,210,2014-02-19 14:42:00
6:52 AM,37.0,36.0,96,30.06,0.5,SSW,10.4,-,0.09,Fog-Rain,Light Rain,210,2014-02-19 14:52:00
7:08 AM,37.0,37.0,100,30.09,0.2,SSW,10.4,19.6,0.01,Fog-Rain,Light Rain,200,2014-02-19 15:08:00
7:15 AM,37.0,37.0,100,30.10,0.5,WSW,5.8,19.6,0.01,Fog-Rain,Light Rain,240,2014-02-19 15:15:00
7:22 AM,37.0,37.0,100,30.10,0.2,SW,8.1,-,0.01,Fog-Rain,Light Rain,230,2014-02-19 15:22:00
7:52 AM,37.0,36.0,96,30.09,0.2,Variable,6.9,-,0.02,Fog,Fog,0,2014-02-19 15:52:00
8:03 AM,36.0,36.0,100,30.12,1.0,SW,3.5,-,N/A,,Mist,220,2014-02-19 16:03:00
8:17 AM,36.0,35.1,97,30.12,3.0,WSW,3.5,-,N/A,,Overcast,240,2014-02-19 16:17:00
8:52 AM,36.0,35.1,97,30.09,10.0,Calm,Calm,-,N/A,,Overcast,0,2014-02-19 16:52:00
8:59 AM,36.0,35.1,97,30.13,10.0,West,4.6,-,N/A,,Overcast,280,2014-02-19 16:59:00
9:30 AM,36.0,34.0,93,30.14,10.0,SW,3.5,-,N/A,,Overcast,220,2014-02-19 17:30:00
9:52 AM,37.0,34.0,89,30.09,10.0,Variable,3.5,-,N/A,,Scattered Clouds,0,2014-02-19 17:52:00
9:59 AM,37.0,33.1,86,30.13,10.0,SSW,3.5,-,N/A,,Partly Cloudy,210,2014-02-19 17:59:00
10:52 AM,41.0,33.1,73,30.09,10.0,Variable,4.6,-,N/A,,Clear,0,2014-02-19 18:52:00
11:52 AM,39.9,32.0,73,30.10,10.0,West,6.9,-,N/A,,Scattered Clouds,280,2014-02-19 19:52:00
12:52 PM,41.0,35.1,79,30.10,10.0,SSW,6.9,-,N/A,,Scattered Clouds,200,2014-02-19 20:52:00
1:07 PM,41.0,34.0,76,30.13,10.0,West,5.8,-,N/A,,Mostly Cloudy,280,2014-02-19 21:07:00
1:14 PM,41.0,34.0,76,30.13,10.0,Calm,Calm,-,N/A,,Scattered Clouds,0,2014-02-19 21:14:00
1:52 PM,42.1,34.0,73,30.09,10.0,Variable,4.6,-,N/A,,Clear,0,2014-02-19 21:52:00
2:52 PM,43.0,34.0,71,30.07,10.0,Variable,5.8,-,N/A,,Clear,0,2014-02-19 22:52:00
3:52 PM,41.0,36.0,82,30.08,10.0,WSW,6.9,-,N/A,,Partly Cloudy,250,2014-02-19 23:52:00
4:52 PM,39.9,35.1,83,30.10,10.0,West,4.6,-,N/A,,Mostly Cloudy,260,2014-02-20 00:52:00
5:11 PM,39.9,35.1,83,30.12,10.0,Variable,4.6,-,N/A,,Mostly Cloudy,0,2014-02-20 01:11:00
5:52 PM,39.0,34.0,82,30.11,10.0,WNW,3.5,-,N/A,,Mostly Cloudy,290,2014-02-20 01:52:00
6:08 PM,37.9,34.0,86,30.13,10.0,NW,4.6,-,N/A,,Scattered Clouds,310,2014-02-20 02:08:00
6:52 PM,36.0,33.1,89,30.13,10.0,NE,3.5,-,N/A,,Clear,40,2014-02-20 02:52:00
7:52 PM,37.9,33.1,83,30.13,10.0,NE,4.6,-,N/A,,Clear,50,2014-02-20 03:52:00
8:52 PM,37.9,28.9,70,30.15,10.0,NE,4.6,-,N/A,,Clear,50,2014-02-20 04:52:00
9:52 PM,39.9,23.0,51,30.15,10.0,Variable,5.8,-,N/A,,Clear,0,2014-02-20 05:52:00
10:52 PM,39.0,19.9,46,30.16,10.0,NE,5.8,-,N/A,,Clear,50,2014-02-20 06:52:00
11:52 PM,39.0,18.0,43,30.15,10.0,ENE,5.8,-,N/A,,Clear,60,2014-02-20 07:52:00